Time,TemperatureF,DewpointF,PressureIn,WindDirection,WindDirectionDegrees,WindSpeedMPH,WindSpeedGustMPH,Humidity,HourlyPrecipIn,Conditions,Clouds,dailyrainin,SoftwareType,DateUTC
2013-05-27 00:01:00,53.1,44.7,29.74,NE,46,0.0,0.0,73,0.08,,---,0.00,VWS V14.01,2013-05-27 07:01:00,
2013-05-27 00:07:00,53.1,44.7,29.74,NE,46,0.0,0.0,73,0.08,,---,0.00,VWS V14.01,2013-05-27 07:07:00,
2013-05-27 00:13:00,53.1,44.7,29.74,NE,46,0.0,0.0,73,0.04,,---,0.00,VWS V14.01,2013-05-27 07:13:00,
2013-05-27 00:19:00,52.9,44.5,29.74,NE,46,0.0,0.0,73,0.00,,---,0.00,VWS V14.01,2013-05-27 07:19:00,
2013-05-27 00:25:00,52.9,44.8,29.74,NE,46,0.0,0.0,74,0.00,,---,0.00,VWS V14.01,2013-05-27 07:25:00,
2013-05-27 00:31:00,52.9,44.8,29.74,NE,46,0.0,0.0,74,0.00,,---,0.00,VWS V14.01,2013-05-27 07:31:00,
2013-05-27 00:37:00,52.7,44.7,29.74,NE,46,0.0,0.0,74,0.04,,---,0.04,VWS V14.01,2013-05-27 07:37:00,
2013-05-27 00:43:00,52.7,44.7,29.74,NE,46,0.0,0.0,74,0.04,,---,0.04,VWS V14.01,2013-05-27 07:43:00,
2013-05-27 00:49:00,52.7,44.7,29.74,NE,46,0.0,0.0,74,0.04,,---,0.04,VWS V14.01,2013-05-27 07:49:00,
2013-05-27 00:55:00,52.7,44.7,29.74,NE,46,0.0,0.0,74,0.04,,---,0.04,VWS V14.01,2013-05-27 07:55:00,
2013-05-27 01:01:00,52.7,45.0,29.74,NE,46,0.0,0.0,75,0.04,,---,0.04,VWS V14.01,2013-05-27 08:01:00,
2013-05-27 01:07:00,52.7,45.0,29.74,NE,46,0.0,0.0,75,0.04,,---,0.04,VWS V14.01,2013-05-27 08:07:00,
2013-05-27 01:13:00,52.5,44.8,29.74,NE,46,0.0,0.0,75,0.04,,---,0.04,VWS V14.01,2013-05-27 08:13:00,
2013-05-27 01:19:00,52.5,44.8,29.74,NE,46,0.0,0.0,75,0.04,,---,0.04,VWS V14.01,2013-05-27 08:19:00,
2013-05-27 01:25:00,52.5,44.8,29.71,NE,46,0.0,0.0,75,0.04,,---,0.04,VWS V14.01,2013-05-27 08:25:00,
2013-05-27 01:31:00,52.3,44.7,29.71,NE,46,0.0,0.0,75,0.04,,---,0.04,VWS V14.01,2013-05-27 08:31:00,
2013-05-27 01:37:00,52.3,44.7,29.71,NE,46,0.0,0.0,75,0.04,,---,0.04,VWS V14.01,2013-05-27 08:37:00,
2013-05-27 01:43:00,52.3,44.7,29.71,NE,46,0.0,0.0,75,0.00,,---,0.04,VWS V14.01,2013-05-27 08:43:00,
2013-05-27 01:49:00,52.3,44.7,29.71,NE,46,0.0,0.0,75,0.00,,---,0.04,VWS V14.01,2013-05-27 08:49:00,
2013-05-27 01:55:00,52.3,44.7,29.71,NE,46,0.0,0.0,75,0.00,,---,0.04,VWS V14.01,2013-05-27 08:55:00,
2013-05-27 02:01:00,52.3,44.7,29.71,NE,46,0.0,0.0,75,0.00,,---,0.04,VWS V14.01,2013-05-27 09:01:00,
2013-05-27 02:07:00,52.3,44.7,29.71,NE,46,0.0,0.0,75,0.00,,---,0.04,VWS V14.01,2013-05-27 09:07:00,
2013-05-27 02:13:00,52.5,44.8,29.71,NE,46,0.0,0.0,75,0.00,,---,0.04,VWS V14.01,2013-05-27 09:13:00,
2013-05-27 02:19:00,52.3,44.7,29.71,NE,46,0.0,0.0,75,0.00,,---,0.04,VWS V14.01,2013-05-27 09:19:00,
2013-05-27 02:25:00,52.3,44.7,29.71,NE,46,0.0,0.0,75,0.00,,---,0.04,VWS V14.01,2013-05-27 09:25:00,
2013-05-27 02:31:00,52.3,44.7,29.71,NE,46,0.0,0.0,75,0.00,,---,0.04,VWS V14.01,2013-05-27 09:31:00,
2013-05-27 02:37:00,52.0,44.3,29.71,NE,46,0.0,0.0,75,0.00,,---,0.04,VWS V14.01,2013-05-27 09:37:00,
2013-05-27 02:43:00,51.8,44.1,29.71,NE,46,0.0,0.0,75,0.00,,---,0.04,VWS V14.01,2013-05-27 09:43:00,
2013-05-27 02:49:00,51.6,44.0,29.71,NE,46,0.0,0.0,75,0.00,,---,0.04,VWS V14.01,2013-05-27 09:49:00,
2013-05-27 02:55:00,51.6,44.0,29.68,NE,46,0.0,0.0,75,0.00,,---,0.04,VWS V14.01,2013-05-27 09:55:00,
2013-05-27 03:01:00,51.4,43.8,29.68,NE,46,0.0,0.0,75,0.00,,---,0.04,VWS V14.01,2013-05-27 10:01:00,
2013-05-27 03:07:00,51.3,43.3,29.68,NE,46,0.0,0.0,74,0.00,,---,0.04,VWS V14.01,2013-05-27 10:07:00,
2013-05-27 03:13:00,51.1,43.4,29.68,NE,46,0.0,0.0,75,0.00,,---,0.04,VWS V14.01,2013-05-27 10:13:00,
2013-05-27 03:19:00,51.1,43.4,29.68,NE,46,0.0,0.0,75,0.00,,---,0.04,VWS V14.01,2013-05-27 10:19:00,
2013-05-27 03:25:00,50.9,43.3,29.68,NE,46,0.0,0.0,75,0.00,,---,0.04,VWS V14.01,2013-05-27 10:25:00,
2013-05-27 03:31:00,50.5,42.6,29.68,NE,46,0.0,0.0,74,0.00,,---,0.04,VWS V14.01,2013-05-27 10:31:00,
2013-05-27 03:37:00,50.5,42.9,29.68,NE,46,0.0,0.0,75,0.00,,---,0.04,VWS V14.01,2013-05-27 10:37:00,
2013-05-27 03:43:00,50.5,42.9,29.68,NE,46,0.0,0.0,75,0.00,,---,0.04,VWS V14.01,2013-05-27 10:43:00,
2013-05-27 03:49:00,50.5,42.9,29.68,NE,46,0.0,0.0,75,0.00,,---,0.04,VWS V14.01,2013-05-27 10:49:00,
2013-05-27 03:55:00,50.4,42.8,29.68,NE,46,0.0,0.0,75,0.00,,---,0.04,VWS V14.01,2013-05-27 10:55:00,
2013-05-27 04:01:00,50.4,42.8,29.68,NE,46,0.0,0.0,75,0.00,,---,0.04,VWS V14.01,2013-05-27 11:01:00,
2013-05-27 04:07:00,50.2,42.6,29.68,NE,46,0.0,0.0,75,0.00,,---,0.04,VWS V14.01,2013-05-27 11:07:00,
2013-05-27 04:13:00,49.8,42.2,29.65,NE,46,0.0,0.0,75,0.00,,---,0.04,VWS V14.01,2013-05-27 11:13:00,
2013-05-27 04:19:00,49.5,41.9,29.65,NE,46,0.0,0.0,75,0.00,,---,0.04,VWS V14.01,2013-05-27 11:19:00,
2013-05-27 04:25:00,49.3,41.7,29.65,NE,46,0.0,0.0,75,0.00,,---,0.04,VWS V14.01,2013-05-27 11:25:00,
2013-05-27 04:31:00,49.1,41.5,29.65,NE,46,0.0,0.0,75,0.00,,---,0.04,VWS V14.01,2013-05-27 11:31:00,
2013-05-27 04:37:00,48.9,41.4,29.65,NE,46,0.0,0.0,75,0.00,,---,0.04,VWS V14.01,2013-05-27 11:37:00,
2013-05-27 04:43:00,48.7,40.8,29.65,NE,46,0.0,0.0,74,0.00,,---,0.04,VWS V14.01,2013-05-27 11:43:00,
2013-05-27 04:49:00,48.7,41.2,29.65,NE,46,0.0,0.0,75,0.00,,---,0.04,VWS V14.01,2013-05-27 11:49:00,
2013-05-27 04:55:00,48.6,41.0,29.65,NE,46,0.0,0.0,75,0.00,,---,0.04,VWS V14.01,2013-05-27 11:55:00,
2013-05-27 05:01:00,48.6,41.0,29.65,NE,46,0.0,0.0,75,0.00,,---,0.04,VWS V14.01,2013-05-27 12:01:00,
2013-05-27 05:07:00,48.6,41.0,29.65,NE,47,0.0,0.0,75,0.00,,---,0.04,VWS V14.01,2013-05-27 12:07:00,
2013-05-27 05:13:00,48.6,41.0,29.65,NE,47,0.0,0.0,75,0.00,,---,0.04,VWS V14.01,2013-05-27 12:13:00,
2013-05-27 05:19:00,48.6,41.0,29.65,NE,50,0.0,0.0,75,0.00,,---,0.04,VWS V14.01,2013-05-27 12:19:00,
2013-05-27 05:25:00,48.4,40.8,29.62,NE,50,0.0,0.0,75,0.00,,---,0.04,VWS V14.01,2013-05-27 12:25:00,
2013-05-27 05:31:00,48.6,41.3,29.62,NE,50,0.0,0.0,76,0.00,,---,0.04,VWS V14.01,2013-05-27 12:31:00,
2013-05-27 05:37:00,48.4,40.8,29.62,NE,50,0.0,0.0,75,0.00,,---,0.04,VWS V14.01,2013-05-27 12:37:00,
2013-05-27 05:43:00,48.4,41.2,29.62,NE,50,0.0,0.0,76,0.00,,---,0.04,VWS V14.01,2013-05-27 12:43:00,
2013-05-27 05:49:00,48.6,41.3,29.62,NE,50,0.0,0.0,76,0.00,,---,0.04,VWS V14.01,2013-05-27 12:49:00,
2013-05-27 05:55:00,48.7,41.5,29.62,NE,50,0.0,0.0,76,0.00,,---,0.04,VWS V14.01,2013-05-27 12:55:00,
2013-05-27 06:01:00,48.7,41.5,29.62,ENE,57,0.0,0.0,76,0.00,,---,0.04,VWS V14.01,2013-05-27 13:01:00,
2013-05-27 06:07:00,48.9,42.0,29.62,ENE,57,0.0,0.0,77,0.00,,---,0.04,VWS V14.01,2013-05-27 13:07:00,
2013-05-27 06:13:00,48.9,42.4,29.62,ENE,57,0.0,0.0,78,0.00,,---,0.04,VWS V14.01,2013-05-27 13:13:00,
2013-05-27 06:19:00,49.1,42.5,29.62,ENE,57,0.0,0.0,78,0.00,,---,0.04,VWS V14.01,2013-05-27 13:19:00,
2013-05-27 06:25:00,49.5,42.9,29.59,ENE,57,0.0,0.0,78,0.00,,---,0.04,VWS V14.01,2013-05-27 13:25:00,
2013-05-27 06:31:00,49.5,42.9,29.59,ENE,57,0.0,0.0,78,0.00,,---,0.04,VWS V14.01,2013-05-27 13:31:00,
2013-05-27 06:37:00,49.5,42.9,29.59,ENE,57,0.0,0.0,78,0.00,,---,0.04,VWS V14.01,2013-05-27 13:37:00,
2013-05-27 06:43:00,49.6,43.1,29.59,ENE,57,0.0,0.0,78,0.00,,---,0.04,VWS V14.01,2013-05-27 13:43:00,
2013-05-27 06:49:00,49.8,43.6,29.59,ENE,57,0.0,0.0,79,0.00,,---,0.04,VWS V14.01,2013-05-27 13:49:00,
2013-05-27 06:55:00,50.0,43.4,29.59,ENE,57,0.0,0.0,78,0.00,,---,0.04,VWS V14.01,2013-05-27 13:55:00,
2013-05-27 07:01:00,50.2,43.9,29.59,ENE,57,0.0,0.0,79,0.00,,---,0.04,VWS V14.01,2013-05-27 14:01:00,
2013-05-27 07:07:00,50.4,43.8,29.59,ENE,57,0.0,0.0,78,0.00,,---,0.04,VWS V14.01,2013-05-27 14:07:00,
2013-05-27 07:13:00,50.5,44.3,29.59,ENE,57,0.0,0.0,79,0.00,,---,0.04,VWS V14.01,2013-05-27 14:13:00,
2013-05-27 07:19:00,50.7,44.1,29.59,ENE,57,0.0,0.0,78,0.00,,---,0.04,VWS V14.01,2013-05-27 14:19:00,
2013-05-27 07:25:00,50.9,44.6,29.59,ENE,57,0.0,0.0,79,0.00,,---,0.04,VWS V14.01,2013-05-27 14:25:00,
2013-05-27 07:31:00,51.3,45.0,29.59,ENE,57,0.0,0.0,79,0.00,,---,0.04,VWS V14.01,2013-05-27 14:31:00,
2013-05-27 07:37:00,51.4,45.2,29.59,ENE,57,0.0,0.0,79,0.00,,---,0.04,VWS V14.01,2013-05-27 14:37:00,
2013-05-27 07:43:00,51.6,45.0,29.56,ENE,57,0.0,0.0,78,0.00,,---,0.04,VWS V14.01,2013-05-27 14:43:00,
2013-05-27 07:49:00,52.0,45.3,29.56,ENE,57,0.0,0.0,78,0.00,,---,0.04,VWS V14.01,2013-05-27 14:49:00,
2013-05-27 07:55:00,52.2,45.2,29.56,ENE,57,0.0,0.0,77,0.00,,---,0.04,VWS V14.01,2013-05-27 14:55:00,
2013-05-27 08:01:00,52.3,45.3,29.56,ENE,57,0.0,0.0,77,0.00,,---,0.04,VWS V14.01,2013-05-27 15:01:00,
2013-05-27 08:07:00,52.5,45.5,29.56,ENE,57,0.0,0.0,77,0.00,,---,0.04,VWS V14.01,2013-05-27 15:07:00,
2013-05-27 08:13:00,52.5,45.5,29.56,ENE,57,0.0,0.0,77,0.00,,---,0.04,VWS V14.01,2013-05-27 15:13:00,
2013-05-27 08:19:00,52.5,45.2,29.56,ENE,57,0.0,0.0,76,0.00,,---,0.04,VWS V14.01,2013-05-27 15:19:00,
2013-05-27 08:25:00,52.7,45.4,29.56,ENE,57,0.0,0.0,76,0.00,,---,0.04,VWS V14.01,2013-05-27 15:25:00,
2013-05-27 08:31:00,52.9,45.5,29.56,ENE,57,0.0,0.0,76,0.00,,---,0.04,VWS V14.01,2013-05-27 15:31:00,
2013-05-27 08:37:00,53.1,45.4,29.56,ENE,57,0.0,0.0,75,0.00,,---,0.04,VWS V14.01,2013-05-27 15:37:00,
2013-05-27 08:43:00,53.2,45.9,29.56,ENE,57,0.0,0.0,76,0.00,,---,0.04,VWS V14.01,2013-05-27 15:43:00,
2013-05-27 08:49:00,53.4,45.3,29.56,ENE,57,0.0,0.0,74,0.00,,---,0.04,VWS V14.01,2013-05-27 15:49:00,
2013-05-27 08:55:00,53.6,45.9,29.56,ENE,57,0.0,0.0,75,0.00,,---,0.04,VWS V14.01,2013-05-27 15:55:00,
2013-05-27 09:01:00,53.8,45.7,29.56,ENE,57,0.0,0.0,74,0.00,,---,0.04,VWS V14.01,2013-05-27 16:01:00,
2013-05-27 09:07:00,54.0,45.9,29.56,ENE,57,0.0,0.0,74,0.00,,---,0.04,VWS V14.01,2013-05-27 16:07:00,
2013-05-27 09:13:00,54.3,45.9,29.53,ENE,57,0.0,0.0,73,0.00,,---,0.04,VWS V14.01,2013-05-27 16:13:00,
2013-05-27 09:19:00,54.3,45.9,29.53,ENE,57,0.0,0.0,73,0.00,,---,0.04,VWS V14.01,2013-05-27 16:19:00,
2013-05-27 09:25:00,54.7,45.1,29.53,ENE,57,0.0,0.0,70,0.00,,---,0.04,VWS V14.01,2013-05-27 16:25:00,
2013-05-27 09:31:00,55.0,45.8,29.53,ENE,57,0.0,0.0,71,0.04,,---,0.08,VWS V14.01,2013-05-27 16:31:00,
2013-05-27 09:37:00,55.2,46.0,29.53,ENE,57,0.0,0.0,71,0.04,,---,0.08,VWS V14.01,2013-05-27 16:37:00,
2013-05-27 09:43:00,55.8,46.5,29.53,ENE,57,0.0,0.0,71,0.04,,---,0.08,VWS V14.01,2013-05-27 16:43:00,
2013-05-27 09:49:00,55.8,46.5,29.53,ENE,57,0.0,0.0,71,0.04,,---,0.08,VWS V14.01,2013-05-27 16:49:00,
2013-05-27 09:55:00,56.3,46.7,29.53,ENE,57,0.0,0.0,70,0.04,,---,0.08,VWS V14.01,2013-05-27 16:55:00,
2013-05-27 10:01:00,56.7,46.6,29.53,ENE,57,0.0,0.0,69,0.04,,---,0.08,VWS V14.01,2013-05-27 17:01:00,
2013-05-27 10:07:00,56.8,47.2,29.53,ENE,57,0.0,0.0,70,0.04,,---,0.08,VWS V14.01,2013-05-27 17:07:00,
2013-05-27 10:13:00,57.2,47.5,29.50,ENE,57,0.0,0.0,70,0.04,,---,0.08,VWS V14.01,2013-05-27 17:13:00,
2013-05-27 10:19:00,57.2,46.0,29.50,ENE,57,0.0,0.0,66,0.04,,---,0.08,VWS V14.01,2013-05-27 17:19:00,
2013-05-27 10:25:00,57.6,45.5,29.50,ENE,57,0.0,0.0,64,0.04,,---,0.08,VWS V14.01,2013-05-27 17:25:00,
2013-05-27 10:31:00,57.4,43.2,29.50,ENE,57,0.0,0.0,59,0.00,,---,0.08,VWS V14.01,2013-05-27 17:31:00,
2013-05-27 10:37:00,57.7,44.0,29.50,ENE,57,0.0,0.0,60,0.00,,---,0.08,VWS V14.01,2013-05-27 17:37:00,
2013-05-27 10:43:00,58.1,45.6,29.50,ENE,57,0.0,0.0,63,0.00,,---,0.08,VWS V14.01,2013-05-27 17:43:00,
2013-05-27 10:49:00,58.5,45.5,29.50,ENE,57,0.0,0.0,62,0.00,,---,0.08,VWS V14.01,2013-05-27 17:49:00,
2013-05-27 10:55:00,58.5,45.5,29.50,ENE,57,0.0,0.0,62,0.00,,---,0.08,VWS V14.01,2013-05-27 17:55:00,
2013-05-27 11:01:00,58.5,44.6,29.50,ENE,57,0.0,0.0,60,0.00,,---,0.08,VWS V14.01,2013-05-27 18:01:00,
2013-05-27 11:07:00,58.5,44.2,29.50,ENE,57,0.0,0.0,59,0.00,,---,0.08,VWS V14.01,2013-05-27 18:07:00,
2013-05-27 11:13:00,58.5,43.8,29.50,ENE,57,0.0,0.0,58,0.00,,---,0.08,VWS V14.01,2013-05-27 18:13:00,
2013-05-27 11:19:00,58.5,43.8,29.50,ENE,57,0.0,0.0,58,0.00,,---,0.08,VWS V14.01,2013-05-27 18:19:00,
2013-05-27 11:25:00,59.0,44.7,29.50,ENE,57,0.0,0.0,59,0.00,,---,0.08,VWS V14.01,2013-05-27 18:25:00,
2013-05-27 11:31:00,59.0,45.2,29.50,ENE,57,0.0,0.0,60,0.00,,---,0.08,VWS V14.01,2013-05-27 18:31:00,
2013-05-27 11:37:00,59.2,45.3,29.50,ENE,57,0.0,0.0,60,0.00,,---,0.08,VWS V14.01,2013-05-27 18:37:00,
2013-05-27 11:43:00,59.5,45.7,29.50,ENE,57,0.0,0.0,60,0.00,,---,0.08,VWS V14.01,2013-05-27 18:43:00,
2013-05-27 11:49:00,59.7,43.5,29.50,ENE,57,0.0,0.0,55,0.00,,---,0.08,VWS V14.01,2013-05-27 18:49:00,
2013-05-27 11:55:00,59.7,43.5,29.50,ENE,57,0.0,0.0,55,0.00,,---,0.08,VWS V14.01,2013-05-27 18:55:00,
2013-05-27 12:01:00,59.7,42.1,29.50,ENE,57,0.0,0.0,52,0.00,,---,0.08,VWS V14.01,2013-05-27 19:01:00,
2013-05-27 12:07:00,60.1,43.4,29.50,ENE,57,0.0,0.0,54,0.00,,---,0.08,VWS V14.01,2013-05-27 19:07:00,
2013-05-27 12:13:00,60.3,43.1,29.50,ENE,57,0.0,0.0,53,0.00,,---,0.08,VWS V14.01,2013-05-27 19:13:00,
2013-05-27 12:19:00,60.3,43.1,29.50,ENE,57,0.0,0.0,53,0.00,,---,0.08,VWS V14.01,2013-05-27 19:19:00,
2013-05-27 12:25:00,60.3,44.0,29.47,ENE,57,0.0,0.0,55,0.00,,---,0.08,VWS V14.01,2013-05-27 19:25:00,
2013-05-27 12:31:00,60.8,45.5,29.47,ENE,57,0.0,0.0,57,0.00,,---,0.08,VWS V14.01,2013-05-27 19:31:00,
2013-05-27 12:37:00,61.2,45.4,29.47,ENE,57,0.0,0.0,56,0.04,,---,0.12,VWS V14.01,2013-05-27 19:37:00,
2013-05-27 12:43:00,61.2,43.9,29.47,ENE,57,0.0,0.0,53,0.04,,---,0.12,VWS V14.01,2013-05-27 19:43:00,
2013-05-27 12:49:00,61.3,44.6,29.47,ENE,57,0.0,0.0,54,0.04,,---,0.12,VWS V14.01,2013-05-27 19:49:00,
2013-05-27 12:55:00,61.2,41.9,29.47,NNW,343,0.0,0.0,49,0.04,,---,0.12,VWS V14.01,2013-05-27 19:55:00,
2013-05-27 13:01:00,60.8,42.6,29.47,NNW,343,0.0,0.0,51,0.04,,---,0.12,VWS V14.01,2013-05-27 20:01:00,
2013-05-27 13:07:00,60.6,41.9,29.47,NNW,343,0.0,0.0,50,0.04,,---,0.12,VWS V14.01,2013-05-27 20:07:00,
2013-05-27 13:13:00,60.4,43.2,29.47,NNW,343,0.0,0.0,53,0.04,,---,0.12,VWS V14.01,2013-05-27 20:13:00,
2013-05-27 13:19:00,60.4,41.7,29.47,NNW,343,0.0,0.0,50,0.04,,---,0.12,VWS V14.01,2013-05-27 20:19:00,
2013-05-27 13:25:00,60.3,41.0,29.47,NNW,343,0.0,0.0,49,0.04,,---,0.12,VWS V14.01,2013-05-27 20:25:00,
2013-05-27 13:31:00,60.1,42.9,29.47,NNW,343,0.0,0.0,53,0.04,,---,0.12,VWS V14.01,2013-05-27 20:31:00,
2013-05-27 13:37:00,60.1,42.4,29.47,NNW,343,0.0,0.0,52,0.04,,---,0.16,VWS V14.01,2013-05-27 20:37:00,
2013-05-27 13:43:00,60.3,42.1,29.47,North,5,0.0,2.7,51,0.04,,---,0.16,VWS V14.01,2013-05-27 20:43:00,
2013-05-27 13:49:00,60.1,42.4,29.47,North,5,0.0,0.0,52,0.04,,---,0.16,VWS V14.01,2013-05-27 20:49:00,
2013-05-27 13:55:00,60.1,42.4,29.47,North,5,0.0,0.0,52,0.04,,---,0.16,VWS V14.01,2013-05-27 20:55:00,
2013-05-27 14:01:00,59.9,42.2,29.47,North,5,0.0,0.0,52,0.04,,---,0.16,VWS V14.01,2013-05-27 21:01:00,
2013-05-27 14:07:00,59.7,40.5,29.47,North,5,0.0,0.0,49,0.04,,---,0.16,VWS V14.01,2013-05-27 21:07:00,
2013-05-27 14:13:00,59.7,43.1,29.47,North,5,0.0,0.0,54,0.04,,---,0.16,VWS V14.01,2013-05-27 21:13:00,
2013-05-27 14:19:00,59.7,44.0,29.47,North,5,0.0,0.0,56,0.04,,---,0.16,VWS V14.01,2013-05-27 21:19:00,
2013-05-27 14:25:00,59.7,44.5,29.47,North,5,0.0,0.0,57,0.04,,---,0.16,VWS V14.01,2013-05-27 21:25:00,
2013-05-27 14:31:00,59.7,44.9,29.47,North,5,0.0,0.0,58,0.04,,---,0.16,VWS V14.01,2013-05-27 21:31:00,
2013-05-27 14:37:00,59.5,44.8,29.47,North,5,0.0,0.0,58,0.04,,---,0.16,VWS V14.01,2013-05-27 21:37:00,
2013-05-27 14:43:00,59.5,44.8,29.47,North,5,0.0,0.0,58,0.00,,---,0.16,VWS V14.01,2013-05-27 21:43:00,
2013-05-27 14:49:00,59.7,43.5,29.47,North,5,0.0,0.0,55,0.00,,---,0.16,VWS V14.01,2013-05-27 21:49:00,
2013-05-27 14:55:00,59.7,44.0,29.47,North,5,0.0,0.0,56,0.00,,---,0.16,VWS V14.01,2013-05-27 21:55:00,
2013-05-27 15:01:00,59.7,44.9,29.47,North,5,0.0,0.0,58,0.00,,---,0.16,VWS V14.01,2013-05-27 22:01:00,
2013-05-27 15:07:00,59.4,43.7,29.47,North,5,0.0,0.0,56,0.00,,---,0.16,VWS V14.01,2013-05-27 22:07:00,
2013-05-27 15:13:00,59.0,41.4,29.47,North,5,0.0,0.0,52,0.00,,---,0.16,VWS V14.01,2013-05-27 22:13:00,
2013-05-27 15:19:00,59.4,43.2,29.47,North,5,0.0,0.0,55,0.00,,---,0.16,VWS V14.01,2013-05-27 22:19:00,
2013-05-27 15:25:00,59.4,43.7,29.50,North,5,0.0,0.0,56,0.00,,---,0.16,VWS V14.01,2013-05-27 22:25:00,
2013-05-27 15:31:00,59.2,44.4,29.50,North,5,0.0,0.0,58,0.00,,---,0.16,VWS V14.01,2013-05-27 22:31:00,
2013-05-27 15:37:00,59.0,44.3,29.50,North,5,0.0,0.0,58,0.04,,---,0.20,VWS V14.01,2013-05-27 22:37:00,
2013-05-27 15:43:00,58.8,43.2,29.50,North,5,0.0,0.0,56,0.04,,---,0.20,VWS V14.01,2013-05-27 22:43:00,
2013-05-27 15:49:00,58.6,43.0,29.50,North,5,0.0,0.0,56,0.04,,---,0.20,VWS V14.01,2013-05-27 22:49:00,
2013-05-27 15:55:00,58.5,43.3,29.50,North,5,0.0,0.0,57,0.04,,---,0.20,VWS V14.01,2013-05-27 22:55:00,
2013-05-27 16:01:00,58.6,43.9,29.50,North,5,0.0,0.0,58,0.04,,---,0.20,VWS V14.01,2013-05-27 23:01:00,
2013-05-27 16:07:00,58.8,45.0,29.50,North,5,0.0,0.0,60,0.04,,---,0.20,VWS V14.01,2013-05-27 23:07:00,
2013-05-27 16:13:00,59.4,46.3,29.50,North,5,0.0,0.0,62,0.04,,---,0.20,VWS V14.01,2013-05-27 23:13:00,
2013-05-27 16:19:00,59.5,46.5,29.50,North,5,0.0,0.0,62,0.04,,---,0.20,VWS V14.01,2013-05-27 23:19:00,
2013-05-27 16:25:00,59.5,45.2,29.50,North,5,0.0,0.0,59,0.04,,---,0.20,VWS V14.01,2013-05-27 23:25:00,
2013-05-27 16:31:00,59.7,46.3,29.50,North,5,0.0,0.0,61,0.04,,---,0.20,VWS V14.01,2013-05-27 23:31:00,
2013-05-27 16:37:00,59.4,41.8,29.50,North,5,0.0,0.0,52,0.04,,---,0.20,VWS V14.01,2013-05-27 23:37:00,
2013-05-27 16:43:00,59.4,42.7,29.50,North,5,0.0,0.0,54,0.00,,---,0.20,VWS V14.01,2013-05-27 23:43:00,
2013-05-27 16:49:00,59.4,44.1,29.50,North,5,0.0,0.0,57,0.00,,---,0.20,VWS V14.01,2013-05-27 23:49:00,
2013-05-27 16:55:00,59.0,44.3,29.50,North,5,0.0,0.0,58,0.00,,---,0.20,VWS V14.01,2013-05-27 23:55:00,
2013-05-27 17:01:00,59.2,43.5,29.50,North,5,0.0,0.0,56,0.00,,---,0.20,VWS V14.01,2013-05-28 00:01:00,
2013-05-27 17:07:00,59.2,43.0,29.50,North,5,0.0,0.0,55,0.00,,---,0.20,VWS V14.01,2013-05-28 00:07:00,
2013-05-27 17:13:00,59.7,45.4,29.50,North,5,0.0,0.0,59,0.00,,---,0.20,VWS V14.01,2013-05-28 00:13:00,
2013-05-27 17:19:00,60.1,45.7,29.50,North,5,0.0,0.0,59,0.00,,---,0.20,VWS V14.01,2013-05-28 00:19:00,
2013-05-27 17:25:00,60.4,46.5,29.47,North,5,0.0,0.0,60,0.00,,---,0.20,VWS V14.01,2013-05-28 00:25:00,
2013-05-27 17:31:00,59.9,43.2,29.47,North,5,0.0,0.0,54,0.00,,---,0.20,VWS V14.01,2013-05-28 00:31:00,
2013-05-27 17:37:00,59.7,43.1,29.47,North,5,0.0,0.0,54,0.00,,---,0.20,VWS V14.01,2013-05-28 00:37:00,
2013-05-27 17:43:00,59.5,43.8,29.47,North,5,0.0,0.0,56,0.00,,---,0.20,VWS V14.01,2013-05-28 00:43:00,
2013-05-27 17:49:00,59.4,44.1,29.47,North,5,0.0,0.0,57,0.00,,---,0.20,VWS V14.01,2013-05-28 00:49:00,
2013-05-27 17:55:00,59.4,44.6,29.47,North,5,0.0,0.0,58,0.00,,---,0.20,VWS V14.01,2013-05-28 00:55:00,
2013-05-27 18:01:00,59.4,45.5,29.47,North,5,0.0,0.0,60,0.00,,---,0.20,VWS V14.01,2013-05-28 01:01:00,
2013-05-27 18:07:00,59.0,42.9,29.47,North,5,0.0,0.0,55,0.00,,---,0.20,VWS V14.01,2013-05-28 01:07:00,
2013-05-27 18:13:00,58.6,43.9,29.47,North,5,0.0,0.0,58,0.00,,---,0.20,VWS V14.01,2013-05-28 01:13:00,
2013-05-27 18:19:00,58.5,44.6,29.47,North,5,0.0,0.0,60,0.00,,---,0.20,VWS V14.01,2013-05-28 01:19:00,
2013-05-27 18:25:00,58.1,45.2,29.50,North,5,0.0,0.0,62,0.04,,---,0.24,VWS V14.01,2013-05-28 01:25:00,
2013-05-27 18:31:00,57.7,45.2,29.50,North,5,0.0,0.0,63,0.04,,---,0.24,VWS V14.01,2013-05-28 01:31:00,
2013-05-27 18:37:00,57.6,45.9,29.50,North,5,0.0,0.0,65,0.04,,---,0.24,VWS V14.01,2013-05-28 01:37:00,
2013-05-27 18:43:00,57.2,45.6,29.50,North,5,0.0,0.0,65,0.08,,---,0.28,VWS V14.01,2013-05-28 01:43:00,
2013-05-27 18:49:00,56.7,43.8,29.50,North,5,0.0,0.0,62,0.12,,---,0.31,VWS V14.01,2013-05-28 01:49:00,
2013-05-27 18:55:00,56.5,44.5,29.50,North,5,0.0,0.0,64,0.12,,---,0.31,VWS V14.01,2013-05-28 01:55:00,
2013-05-27 19:01:00,56.3,44.7,29.50,North,5,0.0,0.0,65,0.16,,---,0.35,VWS V14.01,2013-05-28 02:01:00,
2013-05-27 19:07:00,56.3,45.1,29.50,North,5,0.0,0.0,66,0.16,,---,0.35,VWS V14.01,2013-05-28 02:07:00,
2013-05-27 19:13:00,56.1,45.3,29.50,NNE,14,0.0,0.0,67,0.16,,---,0.35,VWS V14.01,2013-05-28 02:13:00,
2013-05-27 19:19:00,56.1,45.7,29.50,NNE,14,0.0,0.0,68,0.20,,---,0.39,VWS V14.01,2013-05-28 02:19:00,
2013-05-27 19:25:00,55.9,45.9,29.50,NNE,14,0.0,0.0,69,0.16,,---,0.39,VWS V14.01,2013-05-28 02:25:00,
2013-05-27 19:31:00,55.8,46.1,29.50,NNE,14,0.0,0.0,70,0.16,,---,0.39,VWS V14.01,2013-05-28 02:31:00,
2013-05-27 19:37:00,55.8,46.1,29.50,NNE,14,0.0,0.0,70,0.20,,---,0.43,VWS V14.01,2013-05-28 02:37:00,
2013-05-27 19:43:00,55.8,46.5,29.50,NNE,14,0.0,0.0,71,0.16,,---,0.43,VWS V14.01,2013-05-28 02:43:00,
2013-05-27 19:49:00,55.8,46.5,29.50,NNE,14,0.0,0.0,71,0.12,,---,0.43,VWS V14.01,2013-05-28 02:49:00,
2013-05-27 19:55:00,55.8,46.9,29.50,NNE,14,0.0,0.0,72,0.20,,---,0.51,VWS V14.01,2013-05-28 02:55:00,
2013-05-27 20:01:00,55.6,47.1,29.50,NNE,14,0.0,0.0,73,0.16,,---,0.51,VWS V14.01,2013-05-28 03:01:00,
2013-05-27 20:07:00,55.6,47.1,29.50,NNE,14,0.0,0.0,73,0.16,,---,0.51,VWS V14.01,2013-05-28 03:07:00,
2013-05-27 20:13:00,55.6,47.4,29.50,NNE,14,0.0,0.0,74,0.16,,---,0.51,VWS V14.01,2013-05-28 03:13:00,
2013-05-27 20:19:00,55.6,47.4,29.50,NNE,14,0.0,0.0,74,0.12,,---,0.51,VWS V14.01,2013-05-28 03:19:00,
2013-05-27 20:25:00,55.6,47.4,29.50,NNE,14,0.0,0.0,74,0.12,,---,0.51,VWS V14.01,2013-05-28 03:25:00,
2013-05-27 20:31:00,55.6,47.4,29.50,NNE,14,0.0,0.0,74,0.12,,---,0.51,VWS V14.01,2013-05-28 03:31:00,
2013-05-27 20:37:00,55.6,47.4,29.50,NNE,14,0.0,0.0,74,0.08,,---,0.51,VWS V14.01,2013-05-28 03:37:00,
2013-05-27 20:43:00,55.6,47.4,29.53,NNE,14,0.0,0.0,74,0.08,,---,0.51,VWS V14.01,2013-05-28 03:43:00,
2013-05-27 20:49:00,55.6,47.4,29.53,NNE,14,0.0,0.0,74,0.08,,---,0.51,VWS V14.01,2013-05-28 03:49:00,
2013-05-27 20:55:00,55.4,47.3,29.53,NNE,14,0.0,0.0,74,0.00,,---,0.51,VWS V14.01,2013-05-28 03:55:00,
2013-05-27 21:01:00,55.4,47.6,29.53,NNE,14,0.0,0.0,75,0.00,,---,0.51,VWS V14.01,2013-05-28 04:01:00,
2013-05-27 21:03:00,55.4,47.3,29.53,NNE,14,0.0,0.0,74,0.00,,---,0.51,VWS V14.01,2013-05-28 04:03:00,
2013-05-27 21:05:00,55.2,47.5,29.53,NNE,14,0.0,0.0,75,0.00,,---,0.51,VWS V14.01,2013-05-28 04:05:00,
2013-05-27 21:07:00,55.2,47.5,29.53,NNE,14,0.0,0.0,75,0.00,,---,0.51,VWS V14.01,2013-05-28 04:07:00,
2013-05-27 21:13:00,55.2,47.5,29.53,NNE,14,0.0,0.0,75,0.00,,---,0.51,VWS V14.01,2013-05-28 04:13:00,
2013-05-27 21:19:00,55.2,47.5,29.53,NNE,14,0.0,0.0,75,0.00,,---,0.51,VWS V14.01,2013-05-28 04:19:00,
2013-05-27 21:25:00,55.2,47.5,29.53,NNE,14,0.0,0.0,75,0.00,,---,0.51,VWS V14.01,2013-05-28 04:25:00,
2013-05-27 21:31:00,55.2,47.5,29.53,NNE,14,0.0,0.0,75,0.00,,---,0.51,VWS V14.01,2013-05-28 04:31:00,
2013-05-27 21:37:00,55.0,47.3,29.53,NNE,14,0.0,0.0,75,0.00,,---,0.51,VWS V14.01,2013-05-28 04:37:00,
2013-05-27 21:43:00,55.0,47.3,29.53,NNE,14,0.0,0.0,75,0.00,,---,0.51,VWS V14.01,2013-05-28 04:43:00,
2013-05-27 21:49:00,55.0,47.6,29.53,NNE,14,0.0,0.0,76,0.00,,---,0.51,VWS V14.01,2013-05-28 04:49:00,
2013-05-27 21:55:00,55.0,47.6,29.53,NNE,14,0.0,0.0,76,0.00,,---,0.51,VWS V14.01,2013-05-28 04:55:00,
2013-05-27 22:01:00,55.0,47.6,29.53,NNE,14,0.0,0.0,76,0.00,,---,0.51,VWS V14.01,2013-05-28 05:01:00,
2013-05-27 22:07:00,54.9,47.5,29.53,NNE,16,0.0,0.0,76,0.00,,---,0.51,VWS V14.01,2013-05-28 05:07:00,
2013-05-27 22:13:00,54.7,47.3,29.53,NNE,16,0.0,0.0,76,0.00,,---,0.51,VWS V14.01,2013-05-28 05:13:00,
2013-05-27 22:19:00,54.7,47.6,29.53,NNE,16,0.0,0.0,77,0.00,,---,0.51,VWS V14.01,2013-05-28 05:19:00,
2013-05-27 22:25:00,54.9,47.8,29.53,NNE,16,0.0,0.0,77,0.00,,---,0.51,VWS V14.01,2013-05-28 05:25:00,
2013-05-27 22:31:00,54.7,47.6,29.53,NNE,16,0.0,0.0,77,0.00,,---,0.51,VWS V14.01,2013-05-28 05:31:00,
2013-05-27 22:37:00,54.7,47.6,29.53,NNE,16,0.0,0.0,77,0.00,,---,0.51,VWS V14.01,2013-05-28 05:37:00,
2013-05-27 22:43:00,54.5,47.5,29.53,NNE,16,0.0,0.0,77,0.00,,---,0.51,VWS V14.01,2013-05-28 05:43:00,
2013-05-27 22:49:00,54.5,47.5,29.53,NNE,16,0.0,0.0,77,0.00,,---,0.51,VWS V14.01,2013-05-28 05:49:00,
2013-05-27 22:55:00,54.5,47.5,29.56,NNE,16,0.0,0.0,77,0.00,,---,0.51,VWS V14.01,2013-05-28 05:55:00,
2013-05-27 23:01:00,54.5,47.8,29.56,NNE,16,0.0,0.0,78,0.00,,---,0.51,VWS V14.01,2013-05-28 06:01:00,
2013-05-27 23:07:00,54.5,47.5,29.56,NNE,16,0.0,0.0,77,0.00,,---,0.51,VWS V14.01,2013-05-28 06:07:00,
2013-05-27 23:13:00,54.3,47.6,29.56,NNE,16,0.0,0.0,78,0.00,,---,0.51,VWS V14.01,2013-05-28 06:13:00,
2013-05-27 23:19:00,54.3,47.3,29.56,NNE,16,0.0,0.0,77,0.00,,---,0.51,VWS V14.01,2013-05-28 06:19:00,
2013-05-27 23:25:00,54.3,47.6,29.56,NNE,16,0.0,0.0,78,0.00,,---,0.51,VWS V14.01,2013-05-28 06:25:00,
2013-05-27 23:31:00,54.3,47.6,29.56,NNE,16,0.0,0.0,78,0.00,,---,0.51,VWS V14.01,2013-05-28 06:31:00,
2013-05-27 23:37:00,54.3,47.6,29.56,NNE,16,0.0,0.0,78,0.00,,---,0.51,VWS V14.01,2013-05-28 06:37:00,
2013-05-27 23:43:00,54.1,47.4,29.56,NNE,16,0.0,0.0,78,0.00,,---,0.51,VWS V14.01,2013-05-28 06:43:00,
2013-05-27 23:49:00,54.1,47.4,29.56,NNE,16,0.0,0.0,78,0.00,,---,0.51,VWS V14.01,2013-05-28 06:49:00,
2013-05-27 23:55:00,54.1,47.4,29.56,NNE,16,0.0,0.0,78,0.00,,---,0.51,VWS V14.01,2013-05-28 06:55:00,